Wind_Speed
22 21 20 19 18 17 17 17 17 17 16 16 15 15 14 13 13 12 11 10 9 8 7 7 8 9 10 12 13 14 15 15 16 16 17 18 20 21 22 23 24 25
23 23 22 21 20 19 19 18 18 18 17 17 16 16 16 14 14 13 13 12 10 10 10 10 11 11 12 13 14 14 15 15 15 16 17 19 20 22 23 24 25 26
25 24 24 22 21 21 21 20 19 19 19 18 18 18 17 16 15 14 14 13 12 11 12 13 13 14 14 15 15 15 15 15 15 16 17 19 20 22 24 24 25 27
27 26 25 24 23 23 23 22 21 20 20 19 19 19 18 17 16 15 15 14 14 14 14 15 15 16 16 16 16 16 16 16 16 17 18 19 21 23 24 25 25 27
29 27 26 25 24 24 23 22 22 22 21 20 20 20 19 19 18 17 16 16 16 16 16 17 17 17 18 18 18 18 17 17 17 18 19 21 22 23 24 25 25 27
30 28 27 26 25 25 24 23 23 23 22 21 21 21 21 20 20 19 18 18 18 19 19 18 18 19 19 19 19 19 19 19 19 19 20 21 22 23 24 25 26 27
31 29 28 27 26 25 25 25 25 25 24 23 23 22 22 22 21 21 21 21 21 21 21 20 20 20 20 21 21 21 21 20 20 21 21 21 22 23 24 25 26 28
31 30 29 28 27 26 26 27 27 27 26 25 24 24 24 23 23 24 24 23 23 23 23 23 22 22 22 22 22 22 21 21 21 21 21 21 22 23 25 26 27 28
33 32 31 30 29 29 29 29 29 29 28 26 26 26 25 25 25 26 25 25 25 25 25 25 25 24 24 23 22 22 21 21 21 20 20 21 22 24 25 26 28 29
35 36 35 34 32 32 31 31 31 30 29 28 28 27 27 27 27 27 27 27 27 27 28 28 28 27 26 24 23 21 21 20 20 20 21 22 23 24 26 27 28 29
37 38 38 37 35 34 33 33 33 32 31 30 30 29 29 29 29 28 28 29 29 29 29 29 29 28 27 25 23 22 21 20 20 20 21 23 24 25 26 27 29 30
39 40 40 39 38 36 36 35 35 34 33 33 32 31 31 31 30 30 30 30 30 30 30 30 29 28 27 25 24 23 22 20 20 21 21 23 25 26 27 28 29 31
41 41 40 40 40 39 39 38 37 36 36 35 34 34 33 32 32 32 32 31 31 31 31 30 29 27 26 25 24 23 22 22 22 22 22 23 25 27 28 29 30 32
42 41 41 40 41 42 42 41 40 39 38 37 37 36 35 34 34 33 33 33 32 31 30 29 27 26 25 24 24 24 24 24 23 23 24 25 26 28 29 30 32 34
40 41 42 42 42 44 44 43 42 41 40 39 39 38 36 36 35 35 34 33 32 31 30 28 26 24 24 24 24 25 26 26 25 25 26 27 28 29 30 32 34 37
40 42 44 44 45 46 45 44 42 41 41 41 40 39 39 38 37 36 34 33 31 30 28 27 25 24 24 25 26 27 27 27 27 27 28 29 30 30 32 34 37 39
41 42 44 46 47 47 45 44 42 41 41 40 40 39 39 39 38 36 34 32 30 29 28 27 26 26 26 27 28 29 29 29 29 29 29 30 31 32 34 36 39 41
41 41 42 45 47 48 47 44 42 41 40 39 39 38 38 37 37 35 33 31 30 29 29 28 28 28 28 28 29 30 30 30 30 31 31 32 33 34 36 38 41 42
39 39 41 42 45 47 47 45 44 42 41 39 37 36 36 36 35 34 32 31 31 30 31 31 30 30 30 30 30 31 31 31 31 32 33 34 34 36 38 40 42 41
38 38 39 40 42 45 46 47 45 43 41 38 36 35 36 36 35 34 33 33 32 32 33 33 32 32 32 31 31 32 32 32 32 33 34 35 37 39 41 42 42 38
36 36 37 38 40 42 45 47 46 44 41 39 37 36 36 36 35 35 35 35 34 34 34 34 34 33 33 32 32 33 33 33 34 34 35 37 38 41 42 42 40 34
36 35 35 35 37 40 43 45 45 44 42 40 39 39 38 38 37 37 37 36 36 36 36 35 34 34 34 34 34 34 34 34 35 35 36 38 40 42 43 40 35 30
36 34 33 33 34 37 40 43 44 44 42 41 41 41 40 40 40 39 39 39 39 38 36 35 34 34 34 35 35 35 35 36 36 37 38 39 42 43 41 37 32 27
37 34 33 32 33 35 38 40 42 43 43 43 43 43 43 43 42 41 41 41 40 39 37 36 34 34 35 36 36 36 37 37 37 38 39 41 43 42 39 33 29 26
38 35 33 32 33 35 36 38 40 42 43 44 45 45 45 44 43 43 42 42 41 39 38 37 35 35 36 36 36 37 38 38 39 39 40 42 42 40 35 31 27 25
39 36 34 33 34 35 35 37 39 41 42 44 45 45 45 45 45 44 43 42 41 39 38 38 37 35 36 36 37 38 39 39 40 41 42 42 41 37 33 29 27 25
Wind_Direction
220 219 221 223 223 224 226 230 235 240 244 246 246 247 246 242 238 236 234 236 245 258 274 290 305 317 326 332 334 335 336 338 341 345 347 347 346 346 347 349 351 352
222 219 221 223 224 225 226 229 233 237 241 243 245 247 248 247 244 242 241 242 249 262 276 288 298 308 317 321 324 325 327 330 334 338 340 340 341 342 344 346 348 350
225 222 222 223 224 226 227 228 230 234 238 239 241 244 246 248 246 245 246 248 254 265 276 286 294 302 308 312 315 317 319 322 326 330 332 333 336 339 342 343 345 347
229 226 223 223 223 225 228 229 230 232 234 236 238 240 244 246 246 246 248 251 256 263 272 281 289 296 301 305 308 310 313 314 317 321 324 326 331 335 339 341 342 343
232 228 225 223 222 224 227 228 229 231 232 233 236 239 242 246 248 250 252 254 257 263 269 277 284 290 294 299 303 306 308 309 310 313 316 321 327 332 335 337 338 339
233 232 230 227 225 224 224 225 228 231 232 232 234 238 242 245 250 253 255 257 260 263 268 273 278 284 290 296 301 304 306 306 307 307 311 317 323 328 331 333 334 335
237 237 236 233 229 224 223 224 227 231 233 234 236 239 243 247 250 253 256 258 261 265 268 272 277 282 288 295 300 303 305 306 306 307 310 316 321 325 328 329 331 332
241 241 239 236 231 225 223 225 228 231 234 236 238 242 245 249 253 256 259 262 266 270 273 276 279 283 288 293 297 301 304 306 307 308 311 315 319 322 324 327 328 329
240 241 240 236 232 228 226 227 230 232 235 238 240 243 247 251 255 259 264 268 272 275 278 281 283 286 288 291 294 299 303 306 308 309 311 314 316 319 322 324 325 326
237 239 239 237 234 232 231 231 232 235 237 239 241 244 248 252 257 261 266 270 274 277 280 283 285 288 289 291 294 297 301 304 307 309 310 312 315 318 320 321 322 325
235 237 238 238 237 236 235 234 235 236 238 240 243 246 249 253 258 263 267 270 274 277 280 283 286 288 291 294 296 298 299 302 305 307 309 312 314 316 316 318 321 323
231 234 237 239 239 238 237 237 237 238 239 241 244 247 250 255 259 264 268 271 274 278 280 283 285 288 292 296 298 299 301 303 305 306 308 310 312 312 314 316 319 321
228 231 234 238 239 239 239 239 239 240 241 243 246 248 252 256 260 265 269 273 277 279 281 283 286 290 294 296 299 301 302 304 305 305 307 308 308 309 312 315 317 319
231 230 231 234 238 239 239 240 241 242 244 246 248 251 254 258 261 265 270 275 279 280 282 284 287 290 293 296 299 302 303 304 304 305 307 306 307 308 311 313 316 319
235 232 230 231 234 237 239 240 241 243 246 249 251 254 257 259 262 266 271 276 279 280 282 285 288 290 292 295 299 301 302 303 303 304 305 305 306 308 311 313 316 319
239 235 232 230 231 233 236 239 241 243 246 249 252 255 258 260 262 266 271 274 276 278 281 285 288 289 290 294 298 300 301 301 301 302 303 304 306 308 311 314 317 319
242 239 236 234 232 231 233 236 239 242 245 249 252 254 257 258 261 264 268 271 273 276 280 283 285 286 288 292 296 299 300 300 300 301 302 304 306 307 310 314 316 318
245 243 241 239 237 234 232 232 235 239 243 247 250 253 255 257 258 261 265 268 271 275 278 280 281 283 287 291 294 297 298 298 298 300 301 303 305 307 310 313 315 317
246 245 245 244 242 239 235 233 233 235 240 245 250 253 254 254 256 258 262 266 269 273 276 278 279 282 285 288 292 295 296 295 297 299 301 302 304 307 310 313 314 316
245 245 246 246 246 244 240 236 234 234 237 242 247 251 252 252 254 257 261 264 268 271 274 276 278 280 283 286 290 292 293 293 295 297 299 301 304 307 310 312 313 313
244 244 245 246 246 245 243 240 237 235 236 239 244 248 250 252 255 257 260 264 268 271 273 274 276 279 282 285 288 290 290 291 293 296 298 300 304 306 308 310 310 309
243 243 244 245 246 246 245 242 240 238 237 238 242 246 250 252 255 258 262 265 268 269 270 271 275 278 280 283 286 287 288 289 292 294 297 300 303 305 306 308 307 304
242 243 243 244 245 246 246 244 242 240 238 239 241 245 249 253 256 259 262 265 267 268 268 269 272 275 278 282 284 285 286 288 291 293 296 300 302 303 304 304 301 299
241 242 243 245 245 246 246 245 243 241 240 240 242 245 249 252 256 259 261 264 266 267 268 269 270 273 277 280 281 283 285 287 290 292 296 298 300 300 300 298 295 294
241 242 244 245 245 245 245 245 243 242 241 242 243 246 249 252 255 258 260 263 265 266 268 269 270 273 276 278 279 281 284 286 288 291 295 297 297 296 294 292 290 291
240 241 242 243 243 243 243 242 242 242 242 243 245 247 249 252 255 257 259 262 264 265 267 269 271 274 275 276 278 280 282 285 287 290 294 295 294 291 288 286 286 289
Height
10998 10999 11000 11002 11003 11004 11005 11005 11007 11008 11009 11009 11009 11010 11010 11011 11012 11012 11013 11013 11012 11013 11013 11013 11013 11013 11013 11013 11013 11012 11011 11010 11010 11009 11008 11007 11006 11005 11003 11002 11000 10999
10996 10998 10999 11000 11002 11003 11004 11004 11005 11007 11008 11008 11009 11009 11010 11010 11011 11011 11012 11012 11012 11013 11013 11013 11013 11013 11013 11012 11012 11012 11011 11010 11009 11008 11008 11006 11005 11004 11002 11001 10999 10998
10994 10996 10997 10998 11000 11001 11002 11003 11004 11005 11006 11007 11008 11008 11009 11010 11010 11011 11011 11012 11012 11012 11012 11012 11012 11012 11012 11012 11011 11011 11010 11009 11008 11008 11007 11006 11005 11003 11002 11000 10999 10997
10992 10994 10995 10996 10997 10998 11000 11001 11003 11004 11005 11006 11007 11008 11008 11009 11009 11010 11010 11011 11012 11012 11012 11012 11011 11011 11011 11011 11010 11010 11009 11009 11008 11007 11006 11005 11004 11003 11001 11000 10998 10996
10990 10992 10993 10994 10995 10996 10998 10999 11001 11002 11003 11004 11005 11006 11007 11008 11008 11009 11010 11010 11011 11011 11011 11011 11011 11010 11010 11010 11009 11009 11008 11008 11007 11006 11005 11004 11003 11002 11000 10999 10997 10996
10987 10990 10991 10992 10993 10995 10996 10997 10998 10999 11001 11003 11004 11005 11005 11006 11007 11008 11008 11009 11009 11010 11010 11010 11010 11010 11009 11009 11008 11008 11007 11007 11006 11005 11004 11003 11002 11000 10999 10998 10996 10995
10985 10988 10990 10991 10992 10993 10994 10995 10996 10997 10999 11000 11002 11003 11004 11004 11005 11006 11007 11007 11007 11008 11008 11009 11010 11009 11009 11008 11007 11007 11006 11005 11005 11004 11003 11002 11001 10999 10998 10996 10995 10994
10984 10986 10988 10989 10990 10991 10992 10992 10994 10995 10996 10998 11000 11001 11002 11003 11003 11004 11004 11005 11006 11006 11007 11007 11008 11008 11008 11007 11006 11006 11005 11004 11003 11002 11001 11000 10999 10998 10997 10995 10994 10992
10982 10983 10985 10987 10988 10989 10989 10990 10991 10992 10994 10996 10997 10999 11000 11001 11001 11002 11002 11003 11003 11004 11004 11004 11005 11006 11006 11006 11006 11005 11003 11002 11001 11000 10999 10998 10997 10996 10995 10994 10993 10991
10979 10979 10981 10983 10985 10986 10987 10988 10989 10990 10992 10994 10995 10997 10998 10999 10999 11000 11001 11001 11001 11001 11002 11002 11002 11003 11003 11003 11003 11003 11002 11001 11000 10998 10997 10996 10995 10995 10994 10992 10991 10990
10975 10976 10977 10979 10982 10984 10985 10986 10987 10988 10990 10991 10992 10994 10995 10996 10997 10998 10999 10999 10999 11000 11000 11000 11000 11000 11000 11000 11000 11000 11000 11000 10999 10997 10996 10994 10993 10992 10992 10990 10989 10988
10971 10973 10974 10976 10979 10981 10982 10983 10984 10985 10987 10988 10989 10991 10992 10994 10995 10996 10997 10997 10997 10998 10998 10998 10998 10997 10997 10997 10997 10997 10997 10997 10997 10996 10995 10993 10992 10990 10989 10988 10987 10985
10967 10969 10971 10974 10976 10977 10978 10979 10980 10982 10983 10984 10986 10988 10990 10991 10993 10993 10994 10994 10995 10996 10996 10995 10995 10995 10994 10994 10993 10994 10994 10994 10993 10993 10992 10991 10990 10988 10987 10986 10984 10983
10963 10966 10969 10971 10973 10974 10974 10975 10977 10978 10979 10981 10983 10985 10987 10989 10990 10990 10991 10992 10992 10993 10993 10993 10993 10992 10992 10991 10991 10990 10990 10990 10990 10990 10989 10988 10987 10986 10985 10983 10982 10980
10960 10963 10965 10967 10968 10969 10970 10971 10973 10975 10976 10978 10979 10982 10984 10985 10986 10987 10988 10989 10989 10989 10989 10990 10990 10990 10989 10989 10988 10988 10987 10987 10987 10986 10985 10984 10984 10982 10981 10980 10979 10977
10957 10959 10961 10963 10964 10964 10966 10968 10971 10972 10973 10974 10976 10978 10980 10981 10982 10984 10985 10986 10986 10986 10986 10987 10987 10987 10986 10986 10986 10985 10985 10984 10984 10983 10982 10981 10980 10979 10978 10977 10975 10974
10952 10954 10956 10958 10959 10961 10963 10965 10967 10969 10970 10971 10973 10975 10976 10977 10979 10981 10982 10982 10983 10983 10984 10984 10984 10984 10984 10983 10983 10983 10982 10981 10980 10980 10979 10978 10977 10976 10975 10974 10972 10970
10948 10951 10952 10954 10956 10958 10960 10962 10964 10965 10966 10968 10969 10971 10973 10974 10976 10977 10978 10979 10980 10980 10981 10981 10981 10981 10981 10981 10980 10980 10979 10978 10977 10976 10975 10974 10973 10972 10972 10970 10969 10967
10945 10947 10948 10951 10953 10955 10957 10958 10960 10961 10962 10964 10966 10968 10970 10971 10972 10974 10975 10975 10976 10977 10977 10978 10978 10978 10978 10978 10978 10977 10976 10975 10974 10973 10972 10971 10970 10969 10968 10967 10965 10963
10941 10943 10945 10947 10949 10952 10954 10955 10955 10957 10959 10961 10963 10964 10966 10967 10968 10970 10971 10972 10973 10973 10974 10974 10975 10975 10975 10975 10974 10973 10972 10971 10971 10970 10968 10967 10966 10965 10964 10963 10961 10960
10938 10939 10941 10943 10945 10948 10950 10951 10952 10954 10955 10957 10959 10960 10961 10963 10965 10966 10967 10968 10969 10970 10970 10970 10971 10971 10971 10971 10971 10969 10968 10968 10967 10966 10965 10964 10963 10961 10960 10959 10958 10956
10934 10935 10937 10939 10941 10943 10945 10947 10949 10950 10952 10954 10955 10956 10958 10959 10961 10962 10963 10964 10966 10966 10966 10967 10968 10968 10967 10966 10966 10965 10964 10964 10963 10963 10962 10960 10959 10957 10956 10955 10954 10953
10930 10932 10933 10935 10937 10939 10941 10943 10945 10946 10948 10950 10951 10952 10953 10955 10956 10958 10959 10960 10961 10961 10962 10964 10965 10964 10963 10962 10962 10961 10961 10960 10960 10959 10958 10957 10955 10954 10953 10952 10951 10949
10926 10928 10930 10931 10933 10934 10936 10938 10940 10942 10944 10945 10946 10948 10949 10951 10952 10954 10955 10955 10956 10957 10958 10960 10961 10961 10960 10958 10958 10957 10956 10956 10956 10955 10955 10953 10951 10950 10949 10948 10947 10946
10923 10924 10926 10927 10929 10930 10932 10934 10936 10938 10939 10941 10942 10943 10945 10946 10948 10949 10950 10951 10952 10953 10954 10955 10956 10957 10956 10954 10954 10953 10952 10952 10952 10951 10951 10950 10947 10946 10945 10944 10944 10943
10919 10920 10921 10923 10924 10926 10927 10929 10931 10932 10934 10936 10937 10939 10940 10942 10943 10944 10945 10946 10947 10949 10949 10950 10951 10952 10952 10950 10949 10949 10948 10948 10947 10947 10947 10946 10943 10942 10941 10941 10940 10939